CSG-1

Last updated on Sun Apr 12 2026 00:02:36 GMT+0000 (Coordinated Universal Time)

1 44873U 19092A 26101.48596690 .00000387 00000+0 55214-4 0 9992 2 44873 97.8885 286.0519 0001232 85.5966 274.5388 14.82158801341598
UTC large
Height (km)
Speed (km/s)
/
Latitude / Longitude
Inclination (degrees)
Orbital Period (minutes)
Azimuth
Elevation
Range (km)
Doppler Factor

Next 0 passes for location: London (51.5072 / 0.1276)

Sorry there are no passes over London.
CSG-1